Date String (YYYY-MM-DD hh:mm:ss) UTC,Instrument flags,absolute air pressure of the measurement (hPa),sample flow rate (lpm),inlet stack bypass flow (lpm),air temperature of the measurement (°C),ambient temperature measured by the external sensor (°C),aerosol sample conditioner tube jacket temperature (°C),OPC LED temperature (°C),internal box temperature (°C),relative humidity of the measurement (%),span deviation,mass concentration of particles derived from Lorenz-Mie calculation of OPC scattering (μg/m³),mass concentration of particles derived from Lorenz-Mie calculation of OPC scattering (μg/m³),mass concentration of particles derived from Lorenz-Mie calculation of OPC scattering (μg/m³)
DateTimeUTC,F1_M11,P_M11,Q1_M11,Q2_M11,T1_M11,T2_M11,T3_M11,T4_M11,T5_M11,U1_M11,ZSPAN_M11,X0_M11,X2_M11,X1_M11
2023-10-19 06:00:00,SystemResetWarning,0834.0,4.99,000.00,029.0,027.6,000.0,037.4,030.6,14.2,0000.0,0011.99,0003.35,0002.00
2023-10-19 06:01:00,SystemResetWarning,0834.1,5.00,000.00,029.0,027.7,000.0,037.4,030.6,14.2,0000.0,0012.16,0003.33,0002.00
2023-10-19 06:02:00,SystemResetWarning,0834.0,5.02,000.00,029.0,027.7,000.0,037.4,030.6,14.2,0000.0,0012.39,0003.33,0002.01
2023-10-19 06:03:00,SystemResetWarning,0834.0,5.01,000.00,029.0,027.6,000.0,037.5,030.6,14.2,0000.0,0012.79,0003.33,0001.99
2023-10-19 06:04:00,SystemResetWarning,0834.0,4.99,000.00,029.0,027.6,000.0,037.4,030.7,14.2,0000.0,0013.12,0003.26,0001.98
2023-10-19 06:05:00,SystemResetWarning,0834.0,4.99,000.00,029.0,027.6,000.0,037.4,030.7,14.2,0000.0,0013.44,0003.27,0001.97
2023-10-19 06:06:00,SystemResetWarning,0834.0,5.02,000.00,029.0,027.6,000.0,037.5,030.7,14.2,0000.0,0013.60,0003.28,0001.98
2023-10-19 06:07:00,SystemResetWarning,0833.9,5.00,000.00,029.0,027.6,000.0,037.5,030.7,14.2,0000.0,0014.21,0003.32,0002.00
2023-10-19 06:08:00,SystemResetWarning,0834.0,4.98,000.00,029.1,027.7,000.0,037.5,030.7,14.2,0000.0,0014.56,0003.36,0002.02
2023-10-19 06:09:00,SystemResetWarning,0834.0,5.00,000.00,029.1,027.7,000.0,037.5,030.7,14.2,0000.0,0014.06,0003.36,0002.06
2023-10-19 06:10:00,SystemResetWarning,0834.0,5.01,000.00,029.1,027.7,000.0,037.5,030.7,14.3,0000.0,0013.36,0003.36,0002.06
2023-10-19 06:11:00,SystemResetWarning,0834.1,5.00,000.00,029.1,027.7,000.0,037.5,030.7,14.2,0000.0,0013.77,0003.38,0002.07
2023-10-19 06:12:00,SystemResetWarning,0834.1,4.99,000.00,029.1,027.7,000.0,037.5,030.7,14.2,0000.0,0013.97,0003.41,0002.08
2023-10-19 06:13:00,SystemResetWarning,0834.1,5.00,000.00,029.1,027.7,000.0,037.5,030.7,14.2,0000.0,0014.06,0003.40,0002.07
2023-10-19 06:14:00,SystemResetWarning,0834.1,5.00,000.00,029.1,027.7,000.0,037.5,030.7,14.2,0000.0,0013.95,0003.39,0002.10
2023-10-19 06:15:00,SystemResetWarning,0834.1,4.99,000.00,029.1,027.7,000.0,037.5,030.7,14.3,0000.0,0013.68,0003.40,0002.13
2023-10-19 06:16:00,SystemResetWarning,0834.1,5.00,000.00,029.1,027.7,000.0,037.5,030.8,14.2,0000.0,0013.69,0003.42,0002.16
2023-10-19 06:17:00,SystemResetWarning,0834.1,5.00,000.00,029.1,027.7,000.0,037.5,030.7,14.1,0000.0,0013.92,0003.45,0002.19
2023-10-19 06:18:00,SystemResetWarning,0834.1,5.00,000.00,029.1,027.7,000.0,037.5,030.8,14.2,0000.0,0013.80,0003.44,0002.18
2023-10-19 06:19:00,SystemResetWarning,0834.0,5.01,000.00,029.1,027.7,000.0,037.5,030.8,14.2,0000.0,0013.39,0003.45,0002.19
2023-10-19 06:20:00,SystemResetWarning,0834.0,5.01,000.00,029.1,027.8,000.0,037.5,030.8,14.2,0000.0,0013.87,0003.47,0002.20
2023-10-19 06:21:00,SystemResetWarning,0834.1,5.00,000.00,029.1,027.8,000.0,037.5,030.8,14.2,0000.0,0014.00,0003.47,0002.22
2023-10-19 06:22:00,SystemResetWarning,0834.1,4.99,000.00,029.1,027.8,000.0,037.5,030.8,14.2,0000.0,0013.59,0003.47,0002.24
2023-10-19 06:23:00,SystemResetWarning,0834.1,5.00,000.00,029.2,027.8,000.0,037.6,030.8,14.2,0000.0,0014.40,0003.47,0002.23
2023-10-19 06:24:00,SystemResetWarning,0834.1,4.99,000.00,029.2,027.8,000.0,037.6,030.8,14.1,0000.0,0014.15,0003.52,0002.26
2023-10-19 06:25:00,SystemResetWarning,0834.1,5.00,000.00,029.2,027.8,000.0,037.6,030.8,14.0,0000.0,0013.98,0003.58,0002.27
2023-10-19 06:26:00,SystemResetWarning,0834.1,5.00,000.00,029.2,027.8,000.0,037.6,030.8,14.0,0000.0,0014.21,0003.64,0002.28
2023-10-19 06:27:00,SystemResetWarning,0834.1,5.00,000.00,029.2,027.8,000.0,037.6,030.8,14.0,0000.0,0014.23,0003.67,0002.29
2023-10-19 06:28:00,SystemResetWarning,0834.1,5.01,000.00,029.2,027.8,000.0,037.6,030.8,14.0,0000.0,0013.18,0003.68,0002.30
2023-10-19 06:29:00,SystemResetWarning,0834.1,4.99,000.00,029.2,027.8,000.0,037.6,030.8,14.0,0000.0,0013.21,0003.67,0002.32
2023-10-19 06:30:00,SystemResetWarning,0834.1,5.00,000.00,029.2,027.8,000.0,037.6,030.8,14.0,0000.0,0013.65,0003.71,0002.34
2023-10-19 06:31:00,SystemResetWarning,0834.1,5.00,000.00,029.2,027.6,000.0,037.6,030.8,14.0,0000.0,0014.08,0003.79,0002.36
2023-10-19 06:32:00,SystemResetWarning,0834.0,4.99,000.00,029.1,025.6,000.0,037.5,030.7,14.0,0000.0,0014.70,0003.81,0002.39
2023-10-19 06:33:00,SystemResetWarning,0834.1,5.01,000.00,029.1,024.4,000.0,037.4,030.5,13.9,0000.0,0014.70,0003.85,0002.44
2023-10-19 06:34:00,SystemResetWarning,0834.0,5.01,000.00,028.9,024.4,000.0,037.4,030.2,14.0,0000.0,0013.91,0003.84,0002.49
2023-10-19 06:35:00,SystemResetWarning,0834.0,4.99,000.00,028.8,024.7,000.0,037.4,030.1,14.0,0000.0,0014.17,0003.85,0002.52
2023-10-19 06:36:00,SystemResetWarning,0834.0,5.00,000.00,028.7,025.1,000.0,037.4,030.1,14.1,0000.0,0014.95,0003.80,0002.52
2023-10-19 06:37:00,SystemResetWarning,0834.0,5.01,000.00,028.6,025.5,000.0,037.4,030.1,14.0,0000.0,0014.83,0003.75,0002.54
2023-10-19 06:38:00,SystemResetWarning,0834.0,5.01,000.00,028.6,025.8,000.0,037.3,030.1,14.0,0000.0,0014.70,0003.73,0002.56
2023-10-19 06:39:00,SystemResetWarning,0834.0,4.99,000.00,028.6,026.1,000.0,037.3,030.1,14.0,0000.0,0014.78,0003.71,0002.56
2023-10-19 06:40:00,SystemResetWarning,0834.0,5.00,000.00,028.6,026.3,000.0,037.3,030.1,14.0,0000.0,0014.69,0003.78,0002.56
2023-10-19 06:41:00,SystemResetWarning,0834.0,5.00,000.00,028.6,026.5,000.0,037.3,030.2,14.0,0000.0,0014.61,0003.77,0002.56
2023-10-19 06:42:00,SystemResetWarning,0834.0,5.00,000.00,028.6,026.6,000.0,037.2,030.2,14.0,0000.0,0013.80,0003.70,0002.56
2023-10-19 06:43:00,SystemResetWarning,0833.9,5.00,000.00,028.6,026.8,000.0,037.2,030.2,14.0,0000.0,0013.19,0003.65,0002.55
2023-10-19 06:44:00,SystemResetWarning,0833.9,5.00,000.00,028.6,026.9,000.0,037.2,030.2,13.9,0000.0,0013.15,0003.63,0002.53
2023-10-19 06:45:00,SystemResetWarning,0833.9,5.01,000.00,028.6,027.0,000.0,037.2,030.2,13.9,0000.0,0012.86,0003.68,0002.53
2023-10-19 06:46:00,SystemResetWarning,0833.9,5.00,000.00,028.6,027.0,000.0,037.2,030.3,13.8,0000.0,0013.76,0003.73,0002.54
2023-10-19 06:47:00,SystemResetWarning,0833.9,5.00,000.00,028.6,027.1,000.0,037.2,030.3,13.8,0000.0,0013.55,0003.76,0002.57
2023-10-19 06:48:00,SystemResetWarning,0833.9,4.99,000.00,028.7,027.1,000.0,037.2,030.3,13.8,0000.0,0013.00,0003.79,0002.59
2023-10-19 06:49:00,SystemResetWarning,0833.9,4.99,000.00,028.7,027.2,000.0,037.2,030.3,13.8,0000.0,0013.23,0003.81,0002.59
2023-10-19 06:50:00,SystemResetWarning,0833.9,5.00,000.00,028.7,027.2,000.0,037.2,030.3,13.7,0000.0,0012.92,0003.83,0002.60
2023-10-19 06:51:00,SystemResetWarning,0833.9,5.00,000.00,028.7,027.3,000.0,037.2,030.3,13.7,0000.0,0013.12,0003.82,0002.62
2023-10-19 06:52:00,SystemResetWarning,0833.8,5.01,000.00,028.7,027.3,000.0,037.2,030.4,13.7,0000.0,0013.36,0003.84,0002.65
2023-10-19 06:53:00,SystemResetWarning,0833.8,5.01,000.00,028.7,027.3,000.0,037.2,030.4,13.7,0000.0,0013.52,0003.89,0002.69
2023-10-19 06:54:00,SystemResetWarning,0833.8,5.00,000.00,028.7,027.3,000.0,037.2,030.4,13.6,0000.0,0013.10,0003.91,0002.71
2023-10-19 06:55:00,SystemResetWarning,0833.9,5.00,000.00,028.7,027.4,000.0,037.2,030.4,13.6,0000.0,0012.25,0003.95,0002.72
2023-10-19 06:56:00,SystemResetWarning,0833.8,5.00,000.00,028.8,027.4,000.0,037.2,030.4,13.6,0000.0,0012.37,0003.97,0002.73
2023-10-19 06:57:00,SystemResetWarning,0833.9,5.00,000.00,028.8,027.4,000.0,037.2,030.4,13.6,0000.0,0011.72,0003.93,0002.73
2023-10-19 06:58:00,SystemResetWarning,0833.9,4.99,000.00,028.8,027.4,000.0,037.2,030.4,13.6,0000.0,0010.75,0003.93,0002.78
2023-10-19 06:59:00,SystemResetWarning,0833.9,5.00,000.00,028.8,027.4,000.0,037.2,030.5,13.5,0000.0,0011.51,0003.98,0002.78
